Location: USNO
(38.9242°N, 77.0663°W)
Time: 20:23:16
(UTC-04:00)

OTV 5 (USA 277) - Pass Details

Date: 10 October 2017
Orbit: 404 x 417 km, 43.0° (Epoch: 07 September)

Event Time Altitude Azimuth Distance (km) Brightness Sun altitude
Rises 19:42:06 0° 239° (WSW) 2,345 ? -13.5°
Reaches altitude 10° 19:44:13 10° 236° (SW) 1,485 ? -13.9°
Maximum altitude 19:47:32 62° 155° (SSE) 469 ? -14.6°
Enters shadow 19:48:51 32° 85° (E) 732 ? -14.8°
